Location: *
(55.6049°S, 142.1985°W)
Time: 23:40:04
(UTC+00:00)

USA 229 - Pass Details

Date: 12 May 2021
Orbit: 955 x 1257 km, 63.4° (Epoch: 17 June)

Event Time Altitude Azimuth Distance (km) Brightness Sun altitude
Exits shadow 15:47:06 15° 243° (WSW) 2,577 5.1 -12.0°
Maximum altitude 15:52:01 34° 299° (WNW) 1,630 4.3 -11.3°
Drops below altitude 10° 15:57:42 10° 1° (N) 2,748 6.1 -10.6°
Sets 16:00:26 0° 10° (N) 3,664 6.9 -10.2°
